Hourly Data Report for April 24, 2016

All times are specified in Local Standard Time (LST). Add 1 hour to adjust for Daylight Saving Time where and when it is observed.

EMERSON AUTO
MANITOBA

49°00'00.000" N
97°14'15.000" W
242.00 m
5020881
71560
WEX

Download Data

Hourly Data (April 2016)
Hourly Data Report for April 24, 2016
Temp Definition
°C
Dew Point Temp Definition
°C
Rel Hum Definition
%
Wind Dir Definition
10's deg

Wind Spd Definition
km/h
Visibility Definition
km
Stn Press Definition
kPa
Hmdx Definition


Wind Chill Definition


Weather Definition


TIME
00:00 7.1 1.8 69 6 16   98.67     LegendNANA
01:00 6.7 2.3 74 7 16   98.60     LegendNANA
02:00 5.8 2.4 78 7 16   98.58     LegendNANA
03:00 5.0 2.1 81 7 19   98.57     LegendNANA
04:00 4.6 3.0 89 7 16   98.52     LegendNANA
05:00 4.3 3.3 93 6 18   98.56     LegendNANA
06:00 3.5 1.1 85 5 17   98.55     LegendNANA
07:00 3.5 0.0 78 5 21   98.60     LegendNANA
08:00 3.6 -0.6 74 6 23   98.51     LegendNANA
09:00 4.9 0.4 73 6 25   98.48     LegendNANA
10:00 6.8 -0.5 60 7 29   98.49     LegendNANA
11:00 8.7 0.3 56 7 27   98.47     LegendNANA
12:00 9.2 0.4 54 8 28   98.46     LegendNANA
13:00 9.7 0.4 52 8 29   98.39     LegendNANA
14:00 9.7 0.2 52 7 26   98.43     LegendNANA
15:00 10.1 -0.3 49 8 27   98.30     LegendNANA
16:00 10.6 -0.5 46 7 33   98.18     LegendNANA
17:00 10.4 -1.0 45 9 23   98.28     LegendNANA
18:00 9.9 0.0 50 7 19   98.28     LegendNANA
19:00 9.3 -1.4 47 6 22   98.29     LegendNANA
20:00 8.8 -2.1 46 5 23   98.33     LegendNANA
21:00 8.4 -2.7 45 5 23   98.31     LegendNANA
22:00 8.1 -2.7 46 5 22   98.28     LegendNANA
23:00 7.7 -3.4 45 5 22   98.24     LegendNANA

Notes on Data Quality.

Legend

  • E = Estimated
  • M = Missing
  • NA = Not Available
  • ‡ = Partner data that is not subject to review by the National Climate Archives
Date modified: